FW5735 Weather Reports


time (UTC)temp
F
wind
direction
speed
knots
gust
knots
rain 1hr
in
rain 24hr
in
rain mn
in
humidity
%
barometer
mb
20260504191536 55 259 11.3 26.1 0.00 0.63 0.03 55 1001.3
20260504190035 55 258 8.7 25.2 0.00 0.63 0.03 60 1000.9
20260504184530 55 259 9.6 23.5 0.00 0.63 0.03 62 1001.1
20260504183029 54 214 12.2 21.7 0.00 0.63 0.03 64 1000.8
20260504181528 54 225 12.2 21.7 0.00 0.63 0.03 65 1000.6
20260504180025 54 263 10.4 22.6 0.00 0.63 0.03 67 1000.5
20260504174522 55 244 12.2 24.3 0.00 0.63 0.03 66 1000.2
20260504173020 54 247 11.3 25.2 0.00 0.63 0.03 66 1000.0
20260504171517 53 257 13.9 26.1 0.00 0.63 0.03 69 1000.0
20260504050022 39 260 9.6 16.5 0.02 0.55 0.05 97 978.9
20260504044521 39 257 7.8 13.9 0.01 0.54 0.04 97 978.4
20260504043023 39 284 5.2 12.2 0.01 0.54 0.03 97 978.2
20260504041509 41 266 7.0 12.2 0.02 0.54 0.03 98 977.4
20260504040015 40 267 2.6 7.8 0.03 0.54 0.03 98 977.1
20260504034502 40 284 1.7 5.2 0.03 0.54 0.03 98 976.6
20260504033105 40 307 0.9 5.2 0.02 0.53 0.02 98 976.4
20260504031604 40 304 1.7 7.0 0.02 0.52 0.02 98 976.2
20260504030054 40 319 2.6 7.0 0.01 0.50 0.00 98 976.1
20260504024551 41 5 5.2 8.7 0.02 0.50 0.50 98 976.0
20260504023050 41 5 2.6 7.8 0.01 0.50 0.50 98 976.1
20260504021547 41 66 2.6 7.8 0.02 0.50 0.50 98 976.2
20260504020056 42 93 2.6 8.7 0.02 0.50 0.50 98 976.5
20260504014550 42 88 4.3 12.2 0.02 0.49 0.49 98 977.0
20260504013040 41 88 3.5 12.2 0.02 0.49 0.49 98 977.2
20260504011542 41 67 6.1 15.6 0.02 0.48 0.48 98 977.4
20260504010036 41 326 6.1 14.8 0.02 0.48 0.48 98 978.4
20260504004534 41 207 5.2 14.8 0.02 0.47 0.47 98 979.2
20260504003028 40 273 6.1 14.8 0.03 0.46 0.46 98 979.9
20260504001526 40 5 8.7 18.2 0.03 0.46 0.46 97 980.7
20260504000022 40 60 7.0 17.4 0.04 0.46 0.46 97 981.6
20260503234521 40 355 7.8 15.6 0.04 0.45 0.45 97 982.6
20260503233015 39 77 7.8 19.1 0.04 0.43 0.43 97 983.2
20260503231513 39 112 6.1 15.6 0.08 0.43 0.43 97 983.6
20260503230009 39 92 9.6 19.1 0.13 0.42 0.42 97 984.4
20260503224504 39 65 10.4 18.2 0.16 0.41 0.41 97 985.6
20260503223003 39 27 9.6 18.2 0.15 0.39 0.39 96 986.6
20260503221602 40 75 7.0 20.0 0.12 0.35 0.35 96 987.6
20260503220055 40 79 7.8 15.6 0.07 0.28 0.28 96 988.7
20260503214551 41 196 7.0 18.2 0.07 0.25 0.25 96 989.5
20260503213052 41 132 7.8 16.5 0.11 0.24 0.24 96 990.5
20260503211603 42 218 3.5 15.6 0.12 0.23 0.23 96 991.5
20260503210041 42 86 5.2 17.4 0.13 0.22 0.22 96 992.4
20260503204538 42 92 5.2 11.3 0.12 0.18 0.18 96 993.1
20260503203043 42 94 6.1 13.9 0.09 0.13 0.13 95 993.6
20260503201534 42 81 7.0 15.6 0.08 0.11 0.11 94 993.9
20260503200037 42 101 6.1 15.6 0.07 0.09 0.09 94 994.7
20260503194526 42 116 3.5 13.0 0.06 0.06 0.06 93 995.6
20260503193029 42 84 3.5 10.4 0.03 0.04 0.04 91 996.8